Regional Weather Roundup
Issued by NWS Little Rock, AR

Home | Current Version | Previous Version | Text Only | Print | Product List | Glossary On
Versions: 1 2 3 4 5 6 7 8 9 10 11 12 13 14 15 16 17 18 19 20 21 22 23 24 25 26 27 28 29 30 31
000
ASUS44 KLZK 261005
RWRLZK

WEATHER ROUNDUP FOR ARKANSAS
NATIONAL WEATHER SERVICE LITTLE ROCK AR
500 AM CDT FRI MAY 26 2017

NOTE: "FAIR" INDICATES FEW OR NO CLOUDS BELOW 12,000 FEET WITH NO
SIGNIFICANT WEATHER AND/OR OBSTRUCTIONS TO VISIBILITY.

ARZ001-003-010-029-261100-
NORTHWEST ARKANSAS

CITY           SKY/WX    TMP DP  RH WIND       PRES   REMARKS
FAYETTEVILLE   CLOUDY    70  62  76 S16       29.66S
FORT SMITH     CLOUDY    67  60  78 NE6       29.67S
HARRISON       CLOUDY    63  59  87 E5        29.72R
BENTONVILLE    CLOUDY    70  59  68 S8        29.66S
ROGERS         PTCLDY    66  61  84 SE8       29.67R
SILOAM SPGS    CLOUDY    72  57  60 S15G24    29.64S
HIGHFILL       CLOUDY    70  61  73 S10       29.65S
$$

ARZ004-005-016-261100-
NORTH CENTRAL ARKANSAS

CITY           SKY/WX    TMP DP  RH WIND       PRES   REMARKS
BATESVILLE     CLEAR     66  61  82 SE9       29.80S
FLIPPIN        CLOUDY    64  55  72 E5        29.72R
MTN HOME       CLOUDY    64  58  80 E7        29.75R
$$

ARZ040-041-261100-
WEST CENTRAL ARKANSAS

CITY           SKY/WX    TMP DP  RH WIND       PRES   REMARKS
MENA           PTCLDY    72  61  68 SW9G20    29.76S
MOUNT IDA      MOCLDY    72  55  55 MISG      29.74R
$$

ARZ009-017-025-026-028-261100-
NORTHEAST ARKANSAS

CITY           SKY/WX    TMP DP  RH WIND       PRES   REMARKS
JONESBORO      PTCLDY    63  59  87 S5        29.83R
NEWPORT        CLEAR     65  61  87 S10       29.81R
WALNUT RIDGE   CLEAR     64  57  77 S8        29.81S
BLYTHEVILLE    CLEAR     66  58  75 S12       29.84S
$$

ARZ022-023-033-042-044-261100-
CENTRAL ARKANSAS

CITY           SKY/WX    TMP DP  RH WIND       PRES   REMARKS
LITTLE ROCK    PTCLDY    67  64  90 S16       29.79S
N LITTLE ROCK    N/A     67  63  86 S9G18     29.79R
JACKSONVILLE   PTCLDY    69  64  85 S10       29.78S
CONWAY           N/A     70  63  78 S15       29.75S
SEARCY         PTCLDY    64  63  96 S5        29.82R
HOT SPRINGS    PTCLDY    69  63  81 SE6       29.79R
RUSSELLVILLE   MOCLDY    69  60  73 VRB5      29.73S
CLINTON        FAIR      59  59 100 CALM      29.76F
$$

ARZ036-261100-
EAST ARKANSAS

CITY           SKY/WX    TMP DP  RH WIND       PRES   REMARKS
WEST MEMPHIS   CLEAR     65  60  84 S12       29.84R
$$

ARZ050-053-066-070-073-261100-
SOUTHWEST ARKANSAS

CITY           SKY/WX    TMP DP  RH WIND       PRES   REMARKS
ARKADELPHIA    FAIR      64  63  96 CALM      29.81R
CAMDEN         PTCLDY    66  61  82 S6        29.83R
TEXARKANA      CLOUDY    67  63  87 S10       29.78S
EL DORADO      PTCLDY    66  63  90 S9        29.84R
DE QUEEN       PTCLDY    68  61  78 VRB5      29.74S
$$

ARZ056-057-069-261100-
SOUTHEAST ARKANSAS

CITY           SKY/WX    TMP DP  RH WIND       PRES   REMARKS
PINE BLUFF     CLEAR     67  63  87 S13       29.83R
STUTTGART      CLEAR     70  55  60 S14       29.84R
MONTICELLO     CLEAR     66  63  90 S5        29.86R

$$






USA.gov is the U.S. government's official web portal to all federal, state and local government web resources and services.